Content
SEND FEEDBACK

Daily
Averages
Monthly
Summary
United States of America

MANGILAO, GUAM


Home > North America > United States > Guam
Elevation: 18 meters     Latitude: 13 27N     Longitude: 144 49E

WEATHER
 
SELECT A DAY
Number of Records: 351,678;   Date Range: 1/1/95 - 10/21/14
 
SHARE

PRINT THIS DATA

[ ← Previous Day ]
WEATHER ALMANAC - 21 NOVEMBER, 2013
[ Next Day → ]
[ °F ]   °C
Weather ElementAverageHighLow
Temperature26.6 °C29.3 °C (11:58 am)24.5 °C (2:58 am)
Dewpoint24.7 °C26 °C (2:37 am)23 °C (5:28 pm)
Humidity89.7 %100 % (2:37 am)81 % (11:58 am)
Barometer1010.8 hPa1012.2 hPa (12:18 am)1008.8 hPa (2:58 pm)
Wind Speed21.7 km/h31.5 km/h (8:58 pm)
Wind Gust44.4 km/h (2:43 am)
Weather ElementAverage
Visibility14.3 km
Wind DirectionENE (57.8 °)

Weather ElementTotal
Precipitation12.7 mm
Cooling Degree Days8.6 (Base 18.3)
Growing Degree Days16.9 (Base 10)
Averaged from 86 records on 21 November, 2013
WEATHER CONDITIONS BREAKOUT
WIND DIRECTION BREAKOUT
WEATHER BY HOUR - 21 NOVEMBER, 2013
[ °F ]   °C
Local TimeTemperatureDewpointHumidityBarometerVisibilityWind DirectionWind SpeedGust SpeedPrecipitationEventsConditions
12:18 AM26 °C25 °C94 %1012.2 hPa16.1 kmNE (50°)25.9 km/hScattered Clouds
12:58 AM26.1 °C25.1 °C94 %1011.2 hPa16.1 kmNE (50°)22.2 km/hPartly Cloudy
1:18 AM26 °C25 °C94 %1011.9 hPa16.1 kmNE (40°)25.9 km/h38.9 km/hMostly Cloudy
1:24 AM26 °C25 °C94 %1011.5 hPa16.1 kmNE (50°)25.9 km/h38.9 km/hRainLight Rain
1:29 AM26 °C25 °C94 %1011.5 hPa16.1 kmNE (40°)25.9 km/hRainLight Rain
1:38 AM26 °C25 °C94 %1011.5 hPa16.1 kmNE (50°)24.1 km/hPartly Cloudy
1:43 AM26 °C25 °C94 %1011.5 hPa12.9 kmNE (50°)22.2 km/hRainLight Rain
1:54 AM26 °C25 °C94 %1011.2 hPa16.1 kmNE (50°)22.2 km/hScattered Clouds
1:58 AM26 °C25.5 °C97 %1010.2 hPa16.1 kmNE (50°)24.1 km/h0.51 mmScattered Clouds
2:08 AM26 °C25 °C94 %1011.2 hPa16.1 kmNE (50°)25.9 km/hMostly Cloudy
2:13 AM26 °C25 °C94 %1011.2 hPa16.1 kmNE (40°)24.1 km/hMostly Cloudy
2:18 AM26 °C25 °C94 %1011.2 hPa16.1 kmNE (40°)25.9 km/hMostly Cloudy
2:28 AM26 °C25 °C94 %1010.8 hPa16.1 kmNE (50°)24.1 km/hMostly Cloudy
2:32 AM26 °C25 °C94 %1010.8 hPa16.1 kmNE (50°)18.5 km/hRainLight Rain
2:37 AM26 °C26 °C100 %1010.8 hPa14.5 kmNE (50°)20.4 km/hRain-ThunderstormLight Thunderstorms and Rain
2:43 AM26 °C25 °C94 %1010.8 hPa6.4 kmEast (80°)25.9 km/h44.4 km/hRain-ThunderstormLight Thunderstorms and Rain
2:48 AM25 °C24 °C94 %1011.2 hPa3.2 kmNE (50°)27.8 km/h44.4 km/hRain-ThunderstormHeavy Thunderstorms and Rain
2:50 AM25 °C24 °C94 %1011.2 hPa3.2 kmNE (40°)27.8 km/h44.4 km/hRain-ThunderstormLight Thunderstorms and Rain
2:52 AM25 °C24 °C94 %1011.2 hPa4 kmNE (40°)22.2 km/h31.5 km/hRainLight Rain
2:58 AM24.5 °C24 °C97 %1010.2 hPa16.1 kmNNE (30°)13 km/h2.79 mmLight Drizzle
3:07 AM25 °C24 °C94 %1010.8 hPa16.1 kmNE (40°)7.4 km/hScattered Clouds
3:10 AM25 °C24 °C94 %1010.8 hPa14.5 kmNE (50°)7.4 km/hRainLight Rain
3:20 AM25 °C24 °C94 %1010.8 hPa2.9 kmVariable5.6 km/hRainHeavy Rain
3:25 AM25 °C24 °C94 %1010.8 hPa3.2 kmNNE (20°)1.9 km/hRainLight Rain
3:30 AM25 °C24 °C94 %1010.8 hPa6.4 kmEast (90°)3.7 km/hRainRain
3:45 AM25 °C24 °C94 %1010.8 hPa4.8 kmCalmRainHeavy Rain
3:50 AM25 °C24 °C94 %1010.8 hPa4 kmCalmRainLight Rain
3:55 AM25 °C24 °C94 %1010.8 hPa6.4 kmEast (80°)13 km/hRainLight Rain
3:58 AM25 °C24 °C94 %1009.8 hPa12.9 kmENE (60°)22.2 km/h8.38 mmRainLight Rain
4:00 AM26 °C24 °C89 %1010.8 hPa16.1 kmNE (50°)24.1 km/h27.8 km/hMostly Cloudy
4:05 AM26 °C24 °C89 %1010.8 hPa16.1 kmNE (50°)22.2 km/hMostly Cloudy
4:30 AM26 °C24 °C89 %1010.5 hPa16.1 kmENE (60°)20.4 km/hMostly Cloudy
4:35 AM26 °C24 °C89 %1010.5 hPa16.1 kmENE (60°)24.1 km/hMostly Cloudy
4:40 AM26 °C25 °C94 %1010.5 hPa16.1 kmENE (60°)20.4 km/hScattered Clouds
4:58 AM26.1 °C25.4 °C96 %1009.8 hPa16.1 kmENE (60°)18.5 km/h0 mmScattered Clouds
5:08 AM26 °C25 °C94 %1010.8 hPa16.1 kmENE (70°)16.7 km/hMostly Cloudy
5:18 AM26 °C25 °C94 %1010.8 hPa16.1 kmENE (60°)18.5 km/hScattered Clouds
5:58 AM26.2 °C25.6 °C96 %1010.2 hPa16.1 kmENE (70°)18.5 km/hPartly Cloudy
6:58 AM26.4 °C25.4 °C94 %1011.2 hPa16.1 kmENE (60°)22.2 km/hScattered Clouds
7:18 AM27 °C26 °C94 %1011.9 hPa16.1 kmENE (70°)24.1 km/hMostly Cloudy
7:33 AM27 °C25 °C89 %1011.9 hPa16.1 kmENE (70°)20.4 km/hScattered Clouds
7:38 AM27 °C25 °C89 %1011.9 hPa16.1 kmENE (70°)20.4 km/hMostly Cloudy
7:43 AM27 °C25 °C89 %1012.2 hPa16.1 kmENE (70°)24.1 km/hScattered Clouds
7:58 AM27.3 °C25.7 °C91 %1011.5 hPa16.1 kmENE (60°)20.4 km/hScattered Clouds
8:58 AM28.3 °C25.8 °C86 %1011.9 hPa16.1 kmENE (70°)20.4 km/hPartly Cloudy
9:58 AM28.9 °C25.6 °C82 %1011.9 hPa16.1 kmEast (80°)27.8 km/hScattered Clouds
10:58 AM28.7 °C25.8 °C84 %1011.5 hPa16.1 kmEast (80°)24.1 km/hPartly Cloudy
11:48 AM29 °C26 °C84 %1011.9 hPa16.1 kmENE (70°)25.9 km/hMostly Cloudy
11:58 AM29.3 °C25.8 °C81 %1011.2 hPa16.1 kmENE (70°)20.4 km/hMostly Cloudy
12:08 PM29 °C26 °C84 %1011.5 hPa16.1 kmENE (70°)22.2 km/hMostly Cloudy
12:13 PM29 °C26 °C84 %1011.5 hPa16.1 kmEast (80°)24.1 km/hScattered Clouds
12:18 PM29 °C26 °C84 %1011.5 hPa16.1 kmENE (70°)24.1 km/hMostly Cloudy
12:23 PM29 °C26 °C84 %1011.2 hPa16.1 kmEast (80°)24.1 km/hMostly Cloudy
12:28 PM29 °C26 °C84 %1011.2 hPa16.1 kmENE (70°)22.2 km/hScattered Clouds
12:33 PM29 °C26 °C84 %1011.2 hPa16.1 kmENE (60°)25.9 km/hLight Drizzle
12:42 PM29 °C26 °C84 %1011.2 hPa16.1 kmENE (70°)20.4 km/h33.3 km/hScattered Clouds
12:58 PM29.2 °C25.6 °C81 %1010.2 hPa16.1 kmENE (60°)20.4 km/h0 mmPartly Cloudy
1:58 PM28.4 °C25.2 °C83 %1009.5 hPa16.1 kmENE (60°)22.2 km/hPartly Cloudy
2:53 PM28 °C25 °C84 %1009.8 hPa16.1 kmENE (60°)20.4 km/hMostly Cloudy
2:58 PM28.2 °C25.3 °C84 %1008.8 hPa16.1 kmENE (60°)22.2 km/hMostly Cloudy
3:03 PM27 °C24 °C84 %1009.8 hPa11.3 kmENE (70°)29.6 km/h42.6 km/hRainLight Rain
3:08 PM26 °C25 °C94 %1010.2 hPa4.8 kmEast (80°)22.2 km/h42.6 km/hRainHeavy Rain
3:13 PM26 °C25 °C94 %1010.2 hPa4.8 kmENE (70°)20.4 km/h42.6 km/hRainLight Rain
3:18 PM26 °C25 °C94 %1010.2 hPa12.9 kmENE (70°)16.7 km/hRainLight Rain
3:19 PM25 °C25 °C100 %1010.2 hPa16.1 kmENE (70°)18.5 km/hMostly Cloudy
3:29 PM26 °C24 °C89 %1010.2 hPa16.1 kmENE (60°)22.2 km/hScattered Clouds
3:58 PM26.2 °C23.8 °C87 %1009.5 hPa16.1 kmENE (60°)25.9 km/h1.02 mmScattered Clouds
4:58 PM26.2 °C23.7 °C86 %1009.5 hPa16.1 kmENE (60°)27.8 km/hScattered Clouds
5:18 PM26 °C24 °C89 %1010.8 hPa16.1 kmENE (60°)24.1 km/hMostly Cloudy
5:28 PM26 °C23 °C83 %1010.8 hPa16.1 kmENE (60°)25.9 km/hMostly Cloudy
5:38 PM26 °C23 °C83 %1010.8 hPa16.1 kmENE (60°)25.9 km/h38.9 km/hMostly Cloudy
5:43 PM26 °C23 °C83 %1010.8 hPa16.1 kmENE (60°)25.9 km/h38.9 km/hScattered Clouds
5:58 PM25.5 °C23.1 °C86 %1010.2 hPa16.1 kmENE (60°)25.9 km/hPartly Cloudy
6:53 PM27 °C25 °C89 %1011.5 hPa16.1 kmENE (60°)27.8 km/hMostly Cloudy
6:58 PM26.9 °C24.6 °C87 %1010.5 hPa16.1 kmENE (60°)25.9 km/hScattered Clouds
7:58 PM26.7 °C24.1 °C86 %1011.2 hPa16.1 kmENE (60°)22.2 km/hPartly Cloudy
8:58 PM26.7 °C23.9 °C85 %1011.2 hPa16.1 kmENE (60°)31.5 km/h40.7 km/hClear
9:38 PM27 °C24 °C84 %1012.2 hPa16.1 kmENE (60°)29.6 km/h37 km/hMostly Cloudy
9:43 PM27 °C24 °C84 %1012.2 hPa16.1 kmENE (60°)24.1 km/h37 km/hScattered Clouds
9:48 PM27 °C24 °C84 %1012.2 hPa16.1 kmENE (60°)25.9 km/hMostly Cloudy
9:53 PM27 °C24 °C84 %1012.2 hPa16.1 kmENE (70°)25.9 km/hScattered Clouds
9:58 PM26.5 °C23.4 °C83 %1011.2 hPa16.1 kmENE (60°)27.8 km/h40.7 km/hScattered Clouds
10:58 PM26.4 °C23.4 °C83 %1011.2 hPa16.1 kmENE (60°)20.4 km/h33.3 km/hPartly Cloudy
11:18 PM27 °C24 °C84 %1012.2 hPa16.1 kmENE (60°)29.6 km/hMostly Cloudy
11:53 PM26 °C24 °C89 %1012.2 hPa16.1 kmENE (60°)25.9 km/hScattered Clouds
11:58 PM26.4 °C23.8 °C86 %1011.2 hPa16.1 kmENE (60°)24.1 km/hScattered Clouds
Hourly data recorded from PGUA, located 0 kilometers away from Mangilao, Guam







STORIES FROM OUR PARTNERS